TimeGMT,TemperatureF,Dew PointF,Humidity,Sea Level PressureIn,VisibilityMPH,Wind Direction,Wind SpeedMPH,Gust SpeedMPH,PrecipitationIn,Events,Conditions,WindDirDegrees,DateUTC
2:50 AM,42,40,88,,,East,18.4,,,,,90,2012-11-26 02:50:00
5:50 AM,42,40,91,,,ENE,10.4,,,,,70,2012-11-26 05:50:00
6:20 AM,42.8,41.0,93,29.47,2.5,ENE,9.2,-,N/A,Rain,Light Rain,60,2012-11-26 06:20:00
6:50 AM,42.8,42.8,100,29.47,3.7,NE,6.9,-,N/A,Rain,Light Rain,50,2012-11-26 06:50:00
7:20 AM,42.8,42.8,100,29.47,4.3,NE,8.1,-,N/A,,Partly Cloudy,40,2012-11-26 07:20:00
7:50 AM,42.8,41.0,93,29.47,5.6,NE,9.2,-,N/A,,Scattered Clouds,40,2012-11-26 07:50:00
8:20 AM,42.8,41.0,93,29.50,6.2,NNE,11.5,-,N/A,,Mostly Cloudy,30,2012-11-26 08:20:00
8:50 AM,43,40,84,,,NNE,11.5,,,,,30,2012-11-26 08:50:00
8:50 AM,44.6,41.0,87,29.50,6.2,NNE,11.5,-,N/A,,Mostly Cloudy,30,2012-11-26 08:50:00
9:20 AM,44.6,41.0,87,29.50,6.2,NNE,12.7,-,N/A,,Mostly Cloudy,30,2012-11-26 09:20:00
9:50 AM,44.6,41.0,87,29.53,6.2,NNE,11.5,-,N/A,Rain,Light Rain,20,2012-11-26 09:50:00
10:20 AM,44.6,41.0,87,29.53,4.3,NNE,10.4,-,N/A,Rain,Light Rain,20,2012-11-26 10:20:00
10:50 AM,44.6,41.0,87,29.53,5.0,NNE,11.5,-,N/A,Rain,Light Rain,20,2012-11-26 10:50:00
11:20 AM,44.6,42.8,93,29.53,6.2,North,9.2,-,N/A,,Scattered Clouds,360,2012-11-26 11:20:00
11:50 AM,45,40,78,,,North,13.8,,,,,0,2012-11-26 11:50:00
11:50 AM,44.6,42.8,93,29.53,6.2,North,13.8,-,N/A,Rain,Light Rain,10,2012-11-26 11:50:00
12:20 PM,44.6,41.0,87,29.53,6.2,North,16.1,-,N/A,Rain,Light Rain,10,2012-11-26 12:20:00
12:50 PM,44.6,42.8,93,29.53,6.2,North,12.7,-,N/A,Rain,Light Rain,360,2012-11-26 12:50:00
1:20 PM,44.6,42.8,93,29.53,6.2,North,13.8,-,N/A,,Mostly Cloudy,360,2012-11-26 13:20:00
1:50 PM,44.6,41.0,87,29.56,6.2,North,16.1,-,N/A,Rain,Rain,360,2012-11-26 13:50:00
2:20 PM,44.6,42.8,93,29.56,6.2,North,15.0,-,N/A,Rain,Rain,360,2012-11-26 14:20:00
2:50 PM,44,40,82,,,North,16.1,,,,,350,2012-11-26 14:50:00
2:50 PM,44.6,41.0,87,29.56,6.2,North,16.1,-,N/A,Rain,Rain,360,2012-11-26 14:50:00
3:20 PM,44.6,41.0,87,29.56,6.2,North,16.1,-,N/A,Rain,Rain,360,2012-11-26 15:20:00
3:50 PM,44.6,41.0,87,29.56,6.2,North,16.1,-,N/A,Rain,Rain,360,2012-11-26 15:50:00
4:20 PM,44.6,41.0,87,29.59,6.2,North,18.4,-,N/A,Rain,Rain,360,2012-11-26 16:20:00
4:50 PM,44.6,41.0,87,29.59,6.2,North,16.1,-,N/A,Rain,Rain,360,2012-11-26 16:50:00
5:20 PM,44.6,41.0,87,29.59,6.2,North,13.8,-,N/A,Rain,Rain,360,2012-11-26 17:20:00
5:50 PM,45,40,76,,,North,13.8,,,,,350,2012-11-26 17:50:00
5:50 PM,44.6,41.0,87,29.62,6.2,North,13.8,-,N/A,Rain,Light Rain,360,2012-11-26 17:50:00
6:20 PM,44.6,41.0,87,29.62,6.2,North,15.0,-,N/A,Rain,Light Rain,360,2012-11-26 18:20:00
6:50 PM,44.6,41.0,87,29.62,6.2,North,16.1,-,N/A,Rain,Light Rain,360,2012-11-26 18:50:00
7:20 PM,44.6,41.0,87,29.62,6.2,North,16.1,-,N/A,,Mostly Cloudy,360,2012-11-26 19:20:00
7:50 PM,44.6,41.0,87,29.65,6.2,North,16.1,-,N/A,,Mostly Cloudy,360,2012-11-26 19:50:00
8:20 PM,46.4,41.0,81,29.65,6.2,North,15.0,-,N/A,,Mostly Cloudy,360,2012-11-26 20:20:00
8:50 PM,45,39,73,,,North,16.1,,,,,350,2012-11-26 20:50:00
8:50 PM,44.6,41.0,87,29.65,6.2,North,15.0,-,N/A,,Mostly Cloudy,360,2012-11-26 20:50:00
11:50 PM,43,39,80,,,North,16.1,,,,,350,2012-11-26 23:50:00